Tabellarische Ansicht des 5.12.2018


Die einzelnen Werte des Tages

Uhrzeit Temperatur Luftdruck Luftfeuchte Wind Hi-Wind Taupunkt THW Index Wind Chill Heat Index Solar- strahlung Regen

00:00

1.1 C

1023.4 hpa

90 %

3.2 km/h aus 117

6.4 km/h aus SSW

-0.4 C

0.5 C

0.6 C

0.9 C

0 W/m

0.00 mm

00:05

1.1 C

1023.4 hpa

90 %

3.2 km/h aus 115

4.8 km/h aus SSW

-0.4 C

0.5 C

0.6 C

0.9 C

0 W/m

0.00 mm

00:10

1.1 C

1023.4 hpa

91 %

4.8 km/h aus 117

6.4 km/h aus SSW

-0.2 C

-0.4 C

-0.3 C

0.9 C

0 W/m

0.00 mm

00:15

1.1 C

1023.4 hpa

91 %

4.8 km/h aus 117

6.4 km/h aus SSW

-0.2 C

-0.4 C

-0.3 C

0.9 C

0 W/m

0.00 mm

00:20

1.1 C

1023.4 hpa

91 %

3.2 km/h aus 117

6.4 km/h aus SSW

-0.2 C

0.5 C

0.6 C

0.9 C

0 W/m

0.00 mm

00:25

1.1 C

1023.4 hpa

91 %

3.2 km/h aus 114

4.8 km/h aus SSW

-0.2 C

0.5 C

0.6 C

0.9 C

0 W/m

0.00 mm

00:30

1.0 C

1023.5 hpa

91 %

3.2 km/h aus 114

4.8 km/h aus SSW

-0.3 C

0.4 C

0.5 C

0.9 C

0 W/m

0.00 mm

00:35

0.9 C

1023.5 hpa

91 %

3.2 km/h aus 117

6.4 km/h aus SSW

-0.4 C

0.3 C

0.4 C

0.8 C

0 W/m

0.00 mm

00:40

0.9 C

1023.5 hpa

91 %

4.8 km/h aus 116

6.4 km/h aus SSW

-0.4 C

-0.6 C

-0.4 C

0.8 C

0 W/m

0.00 mm

00:45

0.9 C

1023.5 hpa

91 %

4.8 km/h aus 117

8.0 km/h aus SSW

-0.4 C

-0.6 C

-0.4 C

0.8 C

0 W/m

0.00 mm

00:50

0.9 C

1023.5 hpa

91 %

4.8 km/h aus 117

6.4 km/h aus SSW

-0.4 C

-0.6 C

-0.4 C

0.8 C

0 W/m

0.00 mm

00:55

1.0 C

1023.5 hpa

91 %

3.2 km/h aus 117

6.4 km/h aus SSW

-0.3 C

0.4 C

0.5 C

0.9 C

0 W/m

0.00 mm

01:00

1.0 C

1023.5 hpa

91 %

4.8 km/h aus 116

6.4 km/h aus SSW

-0.3 C

-0.4 C

-0.3 C

0.9 C

0 W/m

0.00 mm

01:05

1.0 C

1023.5 hpa

91 %

6.4 km/h aus 115

8.0 km/h aus SSW

-0.3 C

-1.1 C

-1.0 C

0.9 C

0 W/m

0.00 mm

01:10

1.0 C

1023.5 hpa

91 %

4.8 km/h aus 113

6.4 km/h aus SSW

-0.3 C

-0.4 C

-0.3 C

0.9 C

0 W/m

0.00 mm

01:15

1.0 C

1023.5 hpa

91 %

3.2 km/h aus 117

4.8 km/h aus SSW

-0.3 C

0.4 C

0.5 C

0.9 C

0 W/m

0.00 mm

01:20

0.9 C

1023.5 hpa

91 %

3.2 km/h aus 117

4.8 km/h aus SSW

-0.4 C

0.3 C

0.4 C

0.8 C

0 W/m

0.00 mm

01:25

0.9 C

1023.5 hpa

91 %

3.2 km/h aus 116

4.8 km/h aus SSW

-0.4 C

0.3 C

0.4 C

0.8 C

0 W/m

0.00 mm

01:30

0.9 C

1023.4 hpa

91 %

3.2 km/h aus 117

4.8 km/h aus SSW

-0.4 C

0.3 C

0.4 C

0.8 C

0 W/m

0.00 mm

01:35

0.8 C

1023.4 hpa

91 %

3.2 km/h aus 117

4.8 km/h aus SSW

-0.5 C

0.2 C

0.3 C

0.7 C

0 W/m

0.00 mm

01:40

0.8 C

1023.4 hpa

91 %

3.2 km/h aus 114

3.2 km/h aus SSW

-0.5 C

0.2 C

0.3 C

0.7 C

0 W/m

0.00 mm

01:45

0.7 C

1023.5 hpa

91 %

1.6 km/h aus 113

3.2 km/h aus SSW

-0.6 C

0.6 C

0.7 C

0.6 C

0 W/m

0.00 mm

01:50

0.6 C

1023.5 hpa

91 %

1.6 km/h aus 113

3.2 km/h aus SSW

-0.7 C

0.5 C

0.6 C

0.5 C

0 W/m

0.00 mm

01:55

0.6 C

1023.5 hpa

91 %

3.2 km/h aus 117

4.8 km/h aus SSW

-0.7 C

-0.1 C

0.1 C

0.4 C

0 W/m

0.00 mm

02:00

0.4 C

1023.4 hpa

91 %

3.2 km/h aus 116

4.8 km/h aus SSW

-0.9 C

-0.2 C

-0.1 C

0.3 C

0 W/m

0.00 mm

02:05

0.4 C

1023.4 hpa

91 %

3.2 km/h aus 117

4.8 km/h aus SSW

-0.9 C

-0.3 C

-0.2 C

0.3 C

0 W/m

0.00 mm

02:10

0.3 C

1023.4 hpa

91 %

3.2 km/h aus 117

4.8 km/h aus SSW

-1.0 C

-0.3 C

-0.3 C

0.2 C

0 W/m

0.00 mm

02:15

0.2 C

1023.4 hpa

91 %

3.2 km/h aus 117

4.8 km/h aus SSW

-1.1 C

-0.4 C

-0.3 C

0.2 C

0 W/m

0.00 mm

02:20

0.2 C

1023.4 hpa

91 %

3.2 km/h aus 116

4.8 km/h aus SSW

-1.1 C

-0.4 C

-0.4 C

0.1 C

0 W/m

0.00 mm

02:25

0.1 C

1023.4 hpa

91 %

3.2 km/h aus 114

4.8 km/h aus SSW

-1.2 C

-0.6 C

-0.5 C

0.0 C

0 W/m

0.00 mm

02:30

0.0 C

1023.5 hpa

91 %

3.2 km/h aus 114

4.8 km/h aus SSW

-1.3 C

-0.6 C

-0.6 C

-0.1 C

0 W/m

0.00 mm

02:35

-0.1 C

1023.5 hpa

91 %

3.2 km/h aus 117

4.8 km/h aus SSW

-1.3 C

-0.7 C

-0.6 C

-0.1 C

0 W/m

0.00 mm

02:40

-0.2 C

1023.5 hpa

91 %

3.2 km/h aus 117

4.8 km/h aus SSW

-1.5 C

-0.8 C

-0.8 C

-0.2 C

0 W/m

0.00 mm

02:45

-0.3 C

1023.5 hpa

91 %

1.6 km/h aus 116

3.2 km/h aus SSW

-1.6 C

-0.3 C

-0.3 C

-0.3 C

0 W/m

0.00 mm

02:50

-0.3 C

1023.5 hpa

91 %

3.2 km/h aus 117

4.8 km/h aus SSW

-1.6 C

-1.0 C

-0.9 C

-0.4 C

0 W/m

0.00 mm

02:55

-0.4 C

1023.5 hpa

91 %

3.2 km/h aus 117

6.4 km/h aus SSW

-1.7 C

-1.2 C

-1.1 C

-0.6 C

0 W/m

0.00 mm

03:00

-0.5 C

1023.7 hpa

90 %

6.4 km/h aus 117

6.4 km/h aus SSW

-1.9 C

-2.9 C

-2.8 C

-0.6 C

0 W/m

0.00 mm

03:05

-0.6 C

1023.7 hpa

91 %

6.4 km/h aus 116

8.0 km/h aus SSW

-1.8 C

-2.9 C

-2.8 C

-0.7 C

0 W/m

0.00 mm

03:10

-0.6 C

1023.7 hpa

91 %

4.8 km/h aus 112

6.4 km/h aus SSW

-1.8 C

-2.2 C

-2.1 C

-0.7 C

0 W/m

0.00 mm

03:15

-0.6 C

1023.7 hpa

91 %

3.2 km/h aus 115

4.8 km/h aus SSW

-1.8 C

-1.3 C

-1.2 C

-0.7 C

0 W/m

0.00 mm

03:20

-0.6 C

1023.7 hpa

91 %

3.2 km/h aus 117

4.8 km/h aus SSW

-1.9 C

-1.3 C

-1.2 C

-0.7 C

0 W/m

0.00 mm

03:25

-0.6 C

1023.7 hpa

91 %

1.6 km/h aus 117

3.2 km/h aus SSW

-1.9 C

-0.7 C

-0.6 C

-0.7 C

0 W/m

0.00 mm

03:30

-0.7 C

1023.6 hpa

91 %

1.6 km/h aus 117

3.2 km/h aus SSW

-2.0 C

-0.8 C

-0.7 C

-0.8 C

0 W/m

0.00 mm

03:35

-0.7 C

1023.6 hpa

91 %

3.2 km/h aus 117

4.8 km/h aus SSW

-2.0 C

-1.5 C

-1.4 C

-0.8 C

0 W/m

0.00 mm

03:40

-0.7 C

1023.6 hpa

91 %

1.6 km/h aus 117

3.2 km/h aus SSW

-2.0 C

-0.8 C

-0.7 C

-0.8 C

0 W/m

0.00 mm

03:45

-0.8 C

1023.7 hpa

91 %

0.0 km/h aus 117

1.6 km/h aus SSW

-2.1 C

-0.9 C

-0.8 C

-0.9 C

0 W/m

0.00 mm

03:50

-0.8 C

1023.7 hpa

91 %

0.0 km/h aus 114

0.0 km/h aus ---

-2.1 C

-0.9 C

-0.8 C

-0.9 C

0 W/m

0.00 mm

03:55

-0.8 C

1023.7 hpa

91 %

0.0 km/h aus 114

0.0 km/h aus ---

-2.1 C

-0.9 C

-0.8 C

-0.9 C

0 W/m

0.00 mm

04:00

-0.8 C

1023.6 hpa

91 %

0.0 km/h aus 113

0.0 km/h aus ---

-2.1 C

-0.9 C

-0.8 C

-0.9 C

0 W/m

0.00 mm

04:05

-0.8 C

1023.6 hpa

91 %

0.0 km/h aus 116

0.0 km/h aus ---

-2.1 C

-0.9 C

-0.8 C

-0.9 C

0 W/m

0.00 mm

04:10

-0.8 C

1023.6 hpa

91 %

0.0 km/h aus 118

3.2 km/h aus SSW

-2.1 C

-0.9 C

-0.8 C

-0.9 C

0 W/m

0.00 mm

04:15

-0.9 C

1023.5 hpa

91 %

1.6 km/h aus 117

3.2 km/h aus SSW

-2.2 C

-1.0 C

-0.9 C

-1.0 C

0 W/m

0.00 mm

04:20

-0.9 C

1023.5 hpa

91 %

1.6 km/h aus 116

3.2 km/h aus SSW

-2.2 C

-1.1 C

-0.9 C

-1.1 C

0 W/m

0.00 mm

04:25

-1.0 C

1023.5 hpa

91 %

1.6 km/h aus 117

3.2 km/h aus SSW

-2.3 C

-1.1 C

-1.0 C

-1.1 C

0 W/m

0.00 mm

04:30

-1.1 C

1023.5 hpa

91 %

0.0 km/h aus 117

1.6 km/h aus SSW

-2.3 C

-1.2 C

-1.1 C

-1.2 C

0 W/m

0.00 mm

04:35

-1.1 C

1023.5 hpa

91 %

0.0 km/h aus 115

0.0 km/h aus ---

-2.4 C

-1.2 C

-1.1 C

-1.2 C

0 W/m

0.00 mm

04:40

-1.2 C

1023.5 hpa

91 %

0.0 km/h aus 114

0.0 km/h aus ---

-2.4 C

-1.3 C

-1.2 C

-1.3 C

0 W/m

0.00 mm

04:45

-1.2 C

1023.5 hpa

91 %

1.6 km/h aus 114

3.2 km/h aus SSW

-2.5 C

-1.3 C

-1.2 C

-1.3 C

0 W/m

0.00 mm

04:50

-1.3 C

1023.5 hpa

91 %

0.0 km/h aus 116

1.6 km/h aus SSW

-2.6 C

-1.4 C

-1.3 C

-1.4 C

0 W/m

0.00 mm

04:55

-1.3 C

1023.5 hpa

91 %

0.0 km/h aus 117

3.2 km/h aus SSW

-2.6 C

-1.4 C

-1.3 C

-1.4 C

0 W/m

0.00 mm

05:00

-1.4 C

1023.5 hpa

91 %

1.6 km/h aus 117

3.2 km/h aus SSW

-2.7 C

-1.5 C

-1.4 C

-1.5 C

0 W/m

0.00 mm

05:05

-1.4 C

1023.5 hpa

91 %

1.6 km/h aus 116

3.2 km/h aus SSW

-2.7 C

-1.6 C

-1.4 C

-1.6 C

0 W/m

0.00 mm

05:10

-1.5 C

1023.5 hpa

91 %

3.2 km/h aus 117

4.8 km/h aus SSW

-2.8 C

-2.3 C

-2.2 C

-1.6 C

0 W/m

0.00 mm

05:15

-1.6 C

1023.6 hpa

91 %

1.6 km/h aus 115

3.2 km/h aus SSW

-2.8 C

-1.7 C

-1.6 C

-1.7 C

0 W/m

0.00 mm

05:20

-1.6 C

1023.6 hpa

91 %

1.6 km/h aus 116

3.2 km/h aus SSW

-2.8 C

-1.7 C

-1.6 C

-1.7 C

0 W/m

0.00 mm

05:25

-1.6 C

1023.6 hpa

91 %

0.0 km/h aus 115

3.2 km/h aus SSW

-2.9 C

-1.7 C

-1.6 C

-1.7 C

0 W/m

0.00 mm

05:30

-1.7 C

1023.5 hpa

91 %

0.0 km/h aus 114

3.2 km/h aus SSW

-2.9 C

-1.8 C

-1.7 C

-1.8 C

0 W/m

0.00 mm

05:35

-1.7 C

1023.5 hpa

91 %

0.0 km/h aus 115

1.6 km/h aus SSW

-2.9 C

-1.8 C

-1.7 C

-1.8 C

0 W/m

0.00 mm

05:40

-1.7 C

1023.5 hpa

91 %

0.0 km/h aus 117

0.0 km/h aus ---

-2.9 C

-1.8 C

-1.7 C

-1.8 C

0 W/m

0.00 mm

05:45

-1.7 C

1023.5 hpa

92 %

0.0 km/h aus 117

3.2 km/h aus SSW

-2.8 C

-1.8 C

-1.7 C

-1.8 C

0 W/m

0.00 mm

05:50

-1.7 C

1023.5 hpa

92 %

1.6 km/h aus 116

3.2 km/h aus SSW

-2.9 C

-1.8 C

-1.7 C

-1.8 C

0 W/m

0.00 mm

05:55

-1.7 C

1023.5 hpa

92 %

1.6 km/h aus 117

3.2 km/h aus SSW

-2.9 C

-1.8 C

-1.7 C

-1.8 C

0 W/m

0.00 mm

06:00

-1.7 C

1023.5 hpa

92 %

3.2 km/h aus 117

4.8 km/h aus SSW

-2.8 C

-2.5 C

-2.4 C

-1.8 C

0 W/m

0.00 mm

06:05

-1.7 C

1023.5 hpa

92 %

3.2 km/h aus 116

4.8 km/h aus SSW

-2.8 C

-2.5 C

-2.4 C

-1.8 C

0 W/m

0.00 mm

06:10

-1.7 C

1023.5 hpa

92 %

3.2 km/h aus 113

4.8 km/h aus SSW

-2.8 C

-2.5 C

-2.4 C

-1.8 C

0 W/m

0.00 mm

06:15

-1.7 C

1023.5 hpa

92 %

4.8 km/h aus 114

6.4 km/h aus SSW

-2.8 C

-3.5 C

-3.4 C

-1.8 C

0 W/m

0.00 mm

06:20

-1.7 C

1023.5 hpa

92 %

4.8 km/h aus 116

6.4 km/h aus SE

-2.8 C

-3.5 C

-3.4 C

-1.8 C

0 W/m

0.00 mm

06:25

-1.6 C

1023.5 hpa

92 %

6.4 km/h aus 118

9.7 km/h aus SE

-2.7 C

-4.2 C

-4.1 C

-1.7 C

0 W/m

0.00 mm

06:30

-1.6 C

1023.5 hpa

92 %

6.4 km/h aus 116

8.0 km/h aus SE

-2.7 C

-4.1 C

-4.0 C

-1.7 C

0 W/m

0.00 mm

06:35

-1.4 C

1023.5 hpa

92 %

6.4 km/h aus 117

8.0 km/h aus SE

-2.5 C

-3.9 C

-3.8 C

-1.5 C

0 W/m

0.00 mm

06:40

-1.3 C

1023.5 hpa

92 %

3.2 km/h aus 116

6.4 km/h aus SE

-2.4 C

-2.1 C

-2.0 C

-1.4 C

0 W/m

0.00 mm

06:45

-1.2 C

1023.5 hpa

92 %

1.6 km/h aus 117

3.2 km/h aus SE

-2.4 C

-1.3 C

-1.2 C

-1.3 C

0 W/m

0.00 mm

06:50

-1.2 C

1023.5 hpa

92 %

1.6 km/h aus 116

4.8 km/h aus SE

-2.3 C

-1.3 C

-1.2 C

-1.3 C

0 W/m

0.00 mm

06:55

-1.1 C

1023.5 hpa

92 %

1.6 km/h aus 113

4.8 km/h aus SE

-2.2 C

-1.2 C

-1.1 C

-1.2 C

0 W/m

0.00 mm

07:00

-1.1 C

1023.5 hpa

92 %

3.2 km/h aus 115

6.4 km/h aus SE

-2.2 C

-1.9 C

-1.8 C

-1.2 C

0 W/m

0.00 mm

07:05

-1.1 C

1023.5 hpa

92 %

3.2 km/h aus 115

8.0 km/h aus ESE

-2.2 C

-1.8 C

-1.7 C

-1.2 C

0 W/m

0.00 mm

07:10

-1.1 C

1023.5 hpa

93 %

3.2 km/h aus 117

6.4 km/h aus ESE

-2.0 C

-1.8 C

-1.7 C

-1.1 C

0 W/m

0.00 mm

07:15

-1.0 C

1023.5 hpa

93 %

4.8 km/h aus 117

6.4 km/h aus ESE

-2.0 C

-2.7 C

-2.6 C

-1.1 C

0 W/m

0.00 mm

07:20

-0.9 C

1023.5 hpa

93 %

3.2 km/h aus 117

6.4 km/h aus ESE

-1.9 C

-1.7 C

-1.6 C

-1.0 C

0 W/m

0.00 mm

07:25

-0.8 C

1023.5 hpa

93 %

4.8 km/h aus 116

6.4 km/h aus ESE

-1.8 C

-2.4 C

-2.4 C

-0.8 C

0 W/m

0.00 mm

07:30

-0.7 C

1023.6 hpa

93 %

3.2 km/h aus 118

6.4 km/h aus ESE

-1.7 C

-1.4 C

-1.4 C

-0.8 C

0 W/m

0.00 mm

07:35

-0.7 C

1023.6 hpa

93 %

1.6 km/h aus 115

3.2 km/h aus ESE

-1.7 C

-0.7 C

-0.7 C

-0.7 C

0 W/m

0.00 mm

07:40

-0.7 C

1023.6 hpa

93 %

1.6 km/h aus 113

4.8 km/h aus ESE

-1.7 C

-0.7 C

-0.7 C

-0.7 C

0 W/m

0.00 mm

07:45

-0.6 C

1023.6 hpa

93 %

1.6 km/h aus 115

3.2 km/h aus ESE

-1.5 C

-0.6 C

-0.6 C

-0.6 C

0 W/m

0.00 mm

07:50

-0.6 C

1023.6 hpa

93 %

3.2 km/h aus 116

4.8 km/h aus ESE

-1.5 C

-1.2 C

-1.2 C

-0.6 C

0 W/m

0.00 mm

07:55

-0.6 C

1023.6 hpa

93 %

3.2 km/h aus 116

6.4 km/h aus ESE

-1.5 C

-1.2 C

-1.2 C

-0.6 C

0 W/m

0.00 mm

08:00

-0.6 C

1023.8 hpa

93 %

3.2 km/h aus 117

6.4 km/h aus ESE

-1.6 C

-1.3 C

-1.2 C

-0.7 C

0 W/m

0.00 mm

08:05

-0.7 C

1023.8 hpa

93 %

4.8 km/h aus 115

8.0 km/h aus ESE

-1.7 C

-2.3 C

-2.2 C

-0.7 C

0 W/m

0.00 mm

08:10

-0.7 C

1023.8 hpa

93 %

4.8 km/h aus 116

6.4 km/h aus ESE

-1.7 C

-2.3 C

-2.2 C

-0.7 C

1 W/m

0.00 mm

08:15

-0.7 C

1023.6 hpa

93 %

4.8 km/h aus 116

6.4 km/h aus ESE

-1.7 C

-2.3 C

-2.2 C

-0.7 C

5 W/m

0.00 mm

08:20

-0.7 C

1023.6 hpa

93 %

6.4 km/h aus 114

8.0 km/h aus SE

-1.7 C

-3.0 C

-2.9 C

-0.7 C

7 W/m

0.00 mm

08:25

-0.6 C

1023.6 hpa

93 %

6.4 km/h aus 113

8.0 km/h aus SE

-1.6 C

-2.9 C

-2.9 C

-0.7 C

10 W/m

0.00 mm

08:30

-0.6 C

1023.6 hpa

93 %

6.4 km/h aus 115

8.0 km/h aus SE

-1.6 C

-2.9 C

-2.9 C

-0.7 C

13 W/m

0.00 mm

08:35

-0.6 C

1023.6 hpa

93 %

6.4 km/h aus 117

8.0 km/h aus SE

-1.5 C

-2.9 C

-2.8 C

-0.6 C

17 W/m

0.00 mm

08:40

-0.6 C

1023.6 hpa

93 %

6.4 km/h aus 116

8.0 km/h aus ESE

-1.5 C

-2.9 C

-2.8 C

-0.6 C

21 W/m

0.00 mm

08:45

-0.4 C

1023.5 hpa

93 %

6.4 km/h aus 114

8.0 km/h aus ESE

-1.4 C

-2.7 C

-2.7 C

-0.5 C

26 W/m

0.00 mm

08:50

-0.3 C

1023.5 hpa

94 %

6.4 km/h aus 117

9.7 km/h aus ESE

-1.1 C

-2.6 C

-2.5 C

-0.3 C

31 W/m

0.00 mm

08:55

-0.1 C

1023.5 hpa

94 %

6.4 km/h aus 117

9.7 km/h aus ESE

-1.0 C

-2.4 C

-2.3 C

-0.2 C

36 W/m

0.00 mm

09:00

0.0 C

1023.4 hpa

94 %

4.8 km/h aus 115

6.4 km/h aus ESE

-0.9 C

-1.6 C

-1.5 C

-0.1 C

36 W/m

0.00 mm

09:05

0.2 C

1023.4 hpa

94 %

3.2 km/h aus 114

6.4 km/h aus ESE

-0.7 C

-0.4 C

-0.4 C

0.1 C

40 W/m

0.00 mm

09:10

0.3 C

1023.4 hpa

94 %

3.2 km/h aus 114

4.8 km/h aus ESE

-0.6 C

-0.3 C

-0.3 C

0.2 C

40 W/m

0.00 mm

09:15

0.4 C

1023.5 hpa

94 %

3.2 km/h aus 117

6.4 km/h aus ESE

-0.4 C

-0.2 C

-0.1 C

0.4 C

43 W/m

0.00 mm

09:20

0.9 C

1023.5 hpa

94 %

3.2 km/h aus 117

8.0 km/h aus SE

0.1 C

0.4 C

0.4 C

0.9 C

62 W/m

0.00 mm

09:25

1.4 C

1023.5 hpa

94 %

4.8 km/h aus 116

9.7 km/h aus ESE

0.6 C

0.1 C

0.2 C

1.4 C

67 W/m

0.00 mm

09:30

1.7 C

1023.4 hpa

94 %

4.8 km/h aus 115

9.7 km/h aus ESE

0.8 C

0.4 C

0.4 C

1.7 C

71 W/m

0.00 mm

09:35

1.7 C

1023.4 hpa

93 %

3.2 km/h aus 117

6.4 km/h aus E

0.7 C

1.3 C

1.3 C

1.7 C

68 W/m

0.00 mm

09:40

1.7 C

1023.4 hpa

93 %

6.4 km/h aus 116

8.0 km/h aus ESE

0.7 C

-0.2 C

-0.2 C

1.7 C

66 W/m

0.00 mm

09:45

1.8 C

1023.2 hpa

93 %

8.0 km/h aus 115

14.5 km/h aus SE

0.8 C

-0.6 C

-0.6 C

1.8 C

84 W/m

0.00 mm

09:50

2.1 C

1023.2 hpa

93 %

8.0 km/h aus 116

16.1 km/h aus SE

1.0 C

-0.3 C

-0.3 C

2.1 C

115 W/m

0.00 mm

09:55

2.4 C

1023.2 hpa

92 %

11.3 km/h aus 116

17.7 km/h aus SE

1.2 C

-0.8 C

-0.7 C

2.3 C

149 W/m

0.00 mm

10:00

2.7 C

1023.1 hpa

91 %

11.3 km/h aus 116

16.1 km/h aus ESE

1.3 C

-0.4 C

-0.4 C

2.6 C

160 W/m

0.00 mm

10:05

2.9 C

1023.1 hpa

91 %

9.7 km/h aus 117

12.9 km/h aus SE

1.6 C

0.2 C

0.2 C

2.8 C

176 W/m

0.00 mm

10:10

3.1 C

1023.1 hpa

90 %

9.7 km/h aus 117

16.1 km/h aus SE

1.6 C

0.4 C

0.4 C

3.0 C

178 W/m

0.00 mm

10:15

3.2 C

1023.1 hpa

90 %

8.0 km/h aus 114

12.9 km/h aus ESE

1.7 C

1.0 C

1.1 C

3.2 C

187 W/m

0.00 mm

10:20

3.4 C

1023.1 hpa

89 %

9.7 km/h aus 113

12.9 km/h aus ESE

1.7 C

0.8 C

0.8 C

3.3 C

194 W/m

0.00 mm

10:25

3.5 C

1023.1 hpa

88 %

9.7 km/h aus 116

14.5 km/h aus ESE

1.7 C

0.9 C

0.9 C

3.4 C

183 W/m

0.00 mm

10:30

3.6 C

1023.0 hpa

88 %

11.3 km/h aus 116

17.7 km/h aus ESE

1.8 C

0.7 C

0.7 C

3.6 C

185 W/m

0.00 mm

10:35

3.7 C

1023.0 hpa

88 %

9.7 km/h aus 117

16.1 km/h aus SE

1.9 C

1.2 C

1.2 C

3.7 C

194 W/m

0.00 mm

10:40

3.9 C

1023.0 hpa

87 %

9.7 km/h aus 117

14.5 km/h aus ESE

1.9 C

1.3 C

1.4 C

3.8 C

209 W/m

0.00 mm

10:45

4.2 C

1023.0 hpa

86 %

6.4 km/h aus 115

12.9 km/h aus E

2.0 C

2.5 C

2.6 C

4.1 C

218 W/m

0.00 mm

10:50

4.3 C

1023.0 hpa

86 %

8.0 km/h aus 115

12.9 km/h aus E

2.1 C

2.2 C

2.3 C

4.2 C

213 W/m

0.00 mm

10:55

4.4 C

1023.0 hpa

85 %

6.4 km/h aus 117

9.7 km/h aus ENE

2.1 C

2.8 C

2.9 C

4.3 C

179 W/m

0.00 mm

11:00

4.5 C

1023.0 hpa

84 %

3.2 km/h aus 117

8.0 km/h aus ESE

2.0 C

4.3 C

4.4 C

4.4 C

183 W/m

0.00 mm

11:05

4.5 C

1023.0 hpa

84 %

4.8 km/h aus 117

6.4 km/h aus SE

2.0 C

3.5 C

3.6 C

4.4 C

196 W/m

0.00 mm

11:10

4.7 C

1023.0 hpa

84 %

4.8 km/h aus 116

9.7 km/h aus ENE

2.2 C

3.8 C

3.9 C

4.6 C

202 W/m

0.00 mm

11:15

4.7 C

1022.7 hpa

83 %

4.8 km/h aus 114

11.3 km/h aus SE

2.1 C

3.8 C

3.9 C

4.6 C

196 W/m

0.00 mm

11:20

4.8 C

1022.7 hpa

83 %

6.4 km/h aus 116

16.1 km/h aus ESE

2.1 C

3.2 C

3.3 C

4.7 C

169 W/m

0.00 mm

11:25

4.7 C

1022.7 hpa

83 %

6.4 km/h aus 117

12.9 km/h aus ESE

2.1 C

3.2 C

3.3 C

4.6 C

126 W/m

0.00 mm

11:30

4.6 C

1022.5 hpa

83 %

6.4 km/h aus 116

12.9 km/h aus ESE

1.9 C

2.9 C

3.1 C

4.4 C

125 W/m

0.00 mm

11:35

4.7 C

1022.5 hpa

83 %

6.4 km/h aus 116

16.1 km/h aus ESE

2.1 C

3.2 C

3.3 C

4.6 C

159 W/m

0.00 mm

11:40

4.7 C

1022.5 hpa

83 %

6.4 km/h aus 115

11.3 km/h aus E

2.1 C

3.2 C

3.3 C

4.6 C

182 W/m

0.00 mm

11:45

4.9 C

1022.4 hpa

83 %

8.0 km/h aus 114

12.9 km/h aus ESE

2.3 C

2.9 C

3.1 C

4.8 C

202 W/m

0.00 mm

11:50

5.1 C

1022.4 hpa

82 %

6.4 km/h aus 117

14.5 km/h aus E

2.2 C

3.5 C

3.7 C

4.9 C

205 W/m

0.00 mm

11:55

5.1 C

1022.4 hpa

82 %

4.8 km/h aus 118

12.9 km/h aus ESE

2.2 C

4.1 C

4.2 C

4.9 C

164 W/m

0.00 mm

12:00

4.9 C

1022.1 hpa

82 %

8.0 km/h aus 117

16.1 km/h aus ESE

2.1 C

2.8 C

3.0 C

4.7 C

92 W/m

0.00 mm

12:05

4.6 C

1022.1 hpa

83 %

12.9 km/h aus 117

19.3 km/h aus ESE

2.0 C

1.6 C

1.7 C

4.5 C

92 W/m

0.00 mm

12:10

4.6 C

1022.1 hpa

84 %

11.3 km/h aus 115

17.7 km/h aus ESE

2.1 C

1.7 C

1.8 C

4.4 C

130 W/m

0.00 mm

12:15

4.6 C

1021.9 hpa

83 %

14.5 km/h aus 115

19.3 km/h aus SE

2.0 C

1.3 C

1.4 C

4.5 C

117 W/m

0.00 mm

12:20

4.7 C

1021.9 hpa

84 %

12.9 km/h aus 117

17.7 km/h aus SE

2.2 C

1.7 C

1.8 C

4.6 C

159 W/m

0.00 mm

12:25

5.0 C

1021.9 hpa

83 %

11.3 km/h aus 117

17.7 km/h aus SE

2.4 C

2.3 C

2.4 C

4.9 C

203 W/m

0.00 mm

12:30

5.3 C

1021.7 hpa

83 %

11.3 km/h aus 116

17.7 km/h aus SE

2.6 C

2.6 C

2.7 C

5.2 C

208 W/m

0.00 mm

12:35

5.3 C

1021.7 hpa

82 %

9.7 km/h aus 117

16.1 km/h aus ESE

2.5 C

2.9 C

3.1 C

5.1 C

167 W/m

0.00 mm

12:40

5.4 C

1021.7 hpa

82 %

9.7 km/h aus 115

17.7 km/h aus ESE

2.6 C

3.0 C

3.2 C

5.2 C

195 W/m

0.00 mm

12:45

5.4 C

1021.4 hpa

81 %

12.9 km/h aus 114

20.9 km/h aus SE

2.4 C

2.4 C

2.6 C

5.2 C

197 W/m

0.00 mm

12:50

5.5 C

1021.4 hpa

81 %

11.3 km/h aus 116

19.3 km/h aus ESE

2.5 C

2.8 C

3.0 C

5.3 C

209 W/m

0.00 mm

12:55

5.6 C

1021.4 hpa

81 %

9.7 km/h aus 118

16.1 km/h aus E

2.6 C

3.2 C

3.4 C

5.4 C

198 W/m

0.00 mm

13:00

5.5 C

1021.4 hpa

80 %

11.3 km/h aus 117

20.9 km/h aus ESE

2.3 C

2.8 C

3.0 C

5.3 C

172 W/m

0.00 mm

13:05

5.3 C

1021.4 hpa

81 %

11.3 km/h aus 117

19.3 km/h aus E

2.3 C

2.6 C

2.8 C

5.2 C

124 W/m

0.00 mm

13:10

5.2 C

1021.4 hpa

82 %

11.3 km/h aus 114

20.9 km/h aus SE

2.3 C

2.4 C

2.6 C

5.0 C

99 W/m

0.00 mm

13:15

5.1 C

1021.3 hpa

82 %

9.7 km/h aus 116

19.3 km/h aus SE

2.3 C

2.7 C

2.8 C

4.9 C

110 W/m

0.00 mm

13:20

5.1 C

1021.3 hpa

82 %

11.3 km/h aus 116

22.5 km/h aus ESE

2.2 C

2.3 C

2.4 C

4.9 C

118 W/m

0.00 mm

13:25

5.1 C

1021.3 hpa

82 %

9.7 km/h aus 117

19.3 km/h aus ESE

2.2 C

2.6 C

2.8 C

4.9 C

129 W/m

0.00 mm

13:30

5.1 C

1021.0 hpa

82 %

11.3 km/h aus 117

20.9 km/h aus ESE

2.3 C

2.3 C

2.5 C

4.9 C

141 W/m

0.00 mm

13:35

5.3 C

1021.0 hpa

81 %

12.9 km/h aus 116

24.1 km/h aus ESE

2.3 C

2.3 C

2.4 C

5.1 C

157 W/m

0.00 mm

13:40

5.3 C

1021.0 hpa

81 %

12.9 km/h aus 114

20.9 km/h aus ESE

2.3 C

2.3 C

2.4 C

5.1 C

129 W/m

0.00 mm

13:45

5.3 C

1020.8 hpa

81 %

12.9 km/h aus 116

22.5 km/h aus SE

2.3 C

2.3 C

2.4 C

5.1 C

117 W/m

0.00 mm

13:50

5.3 C

1020.8 hpa

81 %

11.3 km/h aus 116

22.5 km/h aus SE

2.3 C

2.6 C

2.7 C

5.1 C

101 W/m

0.00 mm

13:55

5.2 C

1020.8 hpa

81 %

11.3 km/h aus 117

20.9 km/h aus ESE

2.2 C

2.5 C

2.7 C

5.1 C

94 W/m

0.00 mm

14:00

5.2 C

1020.4 hpa

81 %

11.3 km/h aus 116

20.9 km/h aus SE

2.2 C

2.5 C

2.7 C

5.1 C

90 W/m

0.00 mm

14:05

5.2 C

1020.4 hpa

81 %

12.9 km/h aus 116

19.3 km/h aus SE

2.2 C

2.2 C

2.4 C

5.1 C

85 W/m

0.00 mm

14:10

5.2 C

1020.4 hpa

81 %

12.9 km/h aus 115

20.9 km/h aus SE

2.2 C

2.2 C

2.4 C

5.1 C

81 W/m

0.00 mm

14:15

5.2 C

1020.4 hpa

81 %

12.9 km/h aus 115

20.9 km/h aus SE

2.2 C

2.2 C

2.4 C

5.1 C

82 W/m

0.00 mm

14:20

5.2 C

1020.4 hpa

81 %

14.5 km/h aus 117

22.5 km/h aus SE

2.2 C

1.9 C

2.1 C

5.0 C

80 W/m

0.00 mm

14:25

5.2 C

1020.4 hpa

81 %

17.7 km/h aus 117

22.5 km/h aus SE

2.2 C

1.3 C

1.5 C

5.0 C

75 W/m

0.00 mm

14:30

5.2 C

1020.2 hpa

81 %

16.1 km/h aus 117

24.1 km/h aus ESE

2.2 C

1.6 C

1.8 C

5.0 C

68 W/m

0.00 mm

14:35

5.2 C

1020.2 hpa

81 %

16.1 km/h aus 116

24.1 km/h aus SE

2.2 C

1.6 C

1.8 C

5.0 C

61 W/m

0.00 mm

14:40

5.1 C

1020.2 hpa

81 %

12.9 km/h aus 114

19.3 km/h aus SE

2.1 C

2.1 C

2.2 C

4.9 C

52 W/m

0.00 mm

14:45

5.1 C

1019.9 hpa

81 %

14.5 km/h aus 114

22.5 km/h aus ESE

2.1 C

1.8 C

1.9 C

4.9 C

48 W/m

0.00 mm

14:50

5.1 C

1019.9 hpa

81 %

12.9 km/h aus 117

20.9 km/h aus E

2.1 C

2.1 C

2.2 C

4.9 C

49 W/m

0.00 mm

14:55

5.1 C

1019.9 hpa

81 %

12.9 km/h aus 117

20.9 km/h aus E

2.1 C

2.1 C

2.2 C

4.9 C

50 W/m

0.00 mm

15:00

5.1 C

1019.9 hpa

81 %

11.3 km/h aus 116

19.3 km/h aus ESE

2.1 C

2.3 C

2.5 C

4.9 C

48 W/m

0.00 mm

15:05

5.1 C

1019.9 hpa

81 %

11.3 km/h aus 117

19.3 km/h aus ESE

2.1 C

2.3 C

2.5 C

4.9 C

45 W/m

0.00 mm

15:10

5.1 C

1019.9 hpa

81 %

11.3 km/h aus 116

17.7 km/h aus SE

2.1 C

2.3 C

2.5 C

4.9 C

42 W/m

0.00 mm

15:15

5.1 C

1019.7 hpa

81 %

8.0 km/h aus 114

14.5 km/h aus ESE

2.1 C

3.1 C

3.2 C

4.9 C

40 W/m

0.00 mm

15:20

5.1 C

1019.7 hpa

81 %

6.4 km/h aus 116

11.3 km/h aus SE

2.1 C

3.6 C

3.7 C

4.9 C

36 W/m

0.00 mm

15:25

5.1 C

1019.7 hpa

81 %

8.0 km/h aus 116

14.5 km/h aus ESE

2.1 C

3.1 C

3.2 C

4.9 C

31 W/m

0.00 mm

15:30

5.1 C

1019.6 hpa

80 %

4.8 km/h aus 117

9.7 km/h aus SE

1.9 C

4.1 C

4.3 C

4.9 C

26 W/m

0.00 mm

15:35

5.1 C

1019.6 hpa

80 %

6.4 km/h aus 117

9.7 km/h aus ESE

1.9 C

3.6 C

3.7 C

4.9 C

21 W/m

0.00 mm

15:40

5.1 C

1019.6 hpa

80 %

9.7 km/h aus 116

16.1 km/h aus ESE

1.9 C

2.6 C

2.8 C

4.9 C

19 W/m

0.00 mm

15:45

5.1 C

1019.3 hpa

80 %

9.7 km/h aus 115

17.7 km/h aus ESE

1.9 C

2.6 C

2.8 C

4.9 C

15 W/m

0.00 mm

15:50

5.0 C

1019.3 hpa

80 %

9.7 km/h aus 113

16.1 km/h aus SE

1.8 C

2.6 C

2.7 C

4.8 C

13 W/m

0.00 mm

15:55

5.0 C

1019.3 hpa

80 %

11.3 km/h aus 117

17.7 km/h aus SE

1.8 C

2.2 C

2.4 C

4.8 C

9 W/m

0.00 mm

16:00

4.9 C

1019.0 hpa

80 %

12.9 km/h aus 117

17.7 km/h aus SE

1.8 C

1.9 C

2.1 C

4.8 C

6 W/m

0.00 mm

16:05

4.9 C

1019.0 hpa

80 %

9.7 km/h aus 117

16.1 km/h aus SE

1.8 C

2.5 C

2.7 C

4.8 C

1 W/m

0.00 mm

16:10

4.9 C

1019.0 hpa

80 %

11.3 km/h aus 116

16.1 km/h aus SE

1.7 C

2.1 C

2.3 C

4.7 C

0 W/m

0.00 mm

16:15

4.8 C

1018.8 hpa

81 %

9.7 km/h aus 116

20.9 km/h aus SE

1.8 C

2.4 C

2.6 C

4.7 C

0 W/m

0.00 mm

16:20

4.8 C

1018.8 hpa

81 %

8.0 km/h aus 114

16.1 km/h aus ESE

1.8 C

2.7 C

2.9 C

4.6 C

0 W/m

0.00 mm

16:25

4.8 C

1018.8 hpa

81 %

8.0 km/h aus 115

19.3 km/h aus ESE

1.8 C

2.7 C

2.9 C

4.6 C

0 W/m

0.00 mm

16:30

4.7 C

1018.4 hpa

80 %

9.7 km/h aus 117

16.1 km/h aus SE

1.6 C

2.2 C

2.4 C

4.6 C

0 W/m

0.00 mm

16:35

4.7 C

1018.4 hpa

81 %

8.0 km/h aus 117

16.1 km/h aus ESE

1.7 C

2.6 C

2.7 C

4.5 C

0 W/m

0.00 mm

16:40

4.6 C

1018.4 hpa

81 %

8.0 km/h aus 117

16.1 km/h aus ESE

1.6 C

2.5 C

2.7 C

4.4 C

0 W/m

0.00 mm

16:45

4.6 C

1018.3 hpa

81 %

9.7 km/h aus 117

16.1 km/h aus E

1.6 C

2.1 C

2.2 C

4.4 C

0 W/m

0.00 mm

16:50

4.6 C

1018.3 hpa

81 %

8.0 km/h aus 114

20.9 km/h aus SE

1.6 C

2.4 C

2.6 C

4.4 C

0 W/m

0.00 mm

16:55

4.6 C

1018.3 hpa

81 %

9.7 km/h aus 114

17.7 km/h aus SSE

1.6 C

2.1 C

2.2 C

4.4 C

0 W/m

0.00 mm

17:00

4.5 C

1017.9 hpa

81 %

9.7 km/h aus 117

17.7 km/h aus ESE

1.5 C

2.0 C

2.2 C

4.3 C

0 W/m

0.00 mm

17:05

4.6 C

1017.9 hpa

81 %

11.3 km/h aus 116

22.5 km/h aus SE

1.6 C

1.7 C

1.8 C

4.4 C

0 W/m

0.00 mm

17:10

4.6 C

1017.9 hpa

81 %

12.9 km/h aus 117

20.9 km/h aus ESE

1.6 C

1.4 C

1.6 C

4.4 C

0 W/m

0.00 mm

17:15

4.6 C

1017.7 hpa

82 %

11.3 km/h aus 118

20.9 km/h aus ESE

1.8 C

1.8 C

1.9 C

4.4 C

0 W/m

0.00 mm

17:20

4.7 C

1017.7 hpa

82 %

12.9 km/h aus 115

19.3 km/h aus SE

1.9 C

1.6 C

1.7 C

4.5 C

0 W/m

0.00 mm

17:25

4.7 C

1017.7 hpa

82 %

11.3 km/h aus 115

19.3 km/h aus SE

1.9 C

1.8 C

2.0 C

4.5 C

0 W/m

0.00 mm

17:30

4.7 C

1017.7 hpa

82 %

11.3 km/h aus 114

19.3 km/h aus E

1.9 C

1.8 C

2.0 C

4.5 C

0 W/m

0.00 mm

17:35

4.7 C

1017.7 hpa

82 %

14.5 km/h aus 117

24.1 km/h aus ESE

1.9 C

1.3 C

1.5 C

4.6 C

0 W/m

0.00 mm

17:40

4.7 C

1017.7 hpa

82 %

14.5 km/h aus 117

22.5 km/h aus SE

1.9 C

1.3 C

1.5 C

4.6 C

0 W/m

0.00 mm

17:45

4.7 C

1017.4 hpa

81 %

14.5 km/h aus 117

24.1 km/h aus SSE

1.7 C

1.3 C

1.5 C

4.6 C

0 W/m

0.00 mm

17:50

4.7 C

1017.4 hpa

81 %

12.9 km/h aus 116

22.5 km/h aus ESE

1.7 C

1.6 C

1.8 C

4.6 C

0 W/m

0.00 mm

17:55

4.7 C

1017.4 hpa

81 %

14.5 km/h aus 115

20.9 km/h aus SE

1.7 C

1.3 C

1.5 C

4.6 C

0 W/m

0.00 mm

18:00

4.7 C

1017.1 hpa

81 %

12.9 km/h aus 114

19.3 km/h aus ESE

1.7 C

1.6 C

1.8 C

4.6 C

0 W/m

0.00 mm

18:05

4.7 C

1017.1 hpa

82 %

11.3 km/h aus 116

19.3 km/h aus ESE

1.9 C

1.9 C

2.1 C

4.6 C

0 W/m

0.00 mm

18:10

4.8 C

1017.1 hpa

82 %

16.1 km/h aus 117

24.1 km/h aus ESE

2.0 C

1.1 C

1.3 C

4.6 C

0 W/m

0.00 mm

18:15

4.8 C

1016.8 hpa

82 %

20.9 km/h aus 117

25.7 km/h aus SE

2.0 C

0.6 C

0.7 C

4.7 C

0 W/m

0.00 mm

18:20

4.9 C

1016.8 hpa

81 %

19.3 km/h aus 118

29.0 km/h aus SE

1.9 C

0.8 C

1.0 C

4.7 C

0 W/m

0.00 mm

18:25

4.9 C

1016.8 hpa

81 %

14.5 km/h aus 117

22.5 km/h aus SE

2.0 C

1.6 C

1.8 C

4.8 C

0 W/m

0.00 mm

18:30

4.9 C

1016.7 hpa

81 %

12.9 km/h aus 114

20.9 km/h aus ESE

2.0 C

1.9 C

2.1 C

4.8 C

0 W/m

0.00 mm

18:35

4.9 C

1016.7 hpa

81 %

9.7 km/h aus 113

17.7 km/h aus SE

2.0 C

2.5 C

2.7 C

4.8 C

0 W/m

0.00 mm

18:40

4.9 C

1016.7 hpa

81 %

14.5 km/h aus 116

25.7 km/h aus SE

2.0 C

1.6 C

1.8 C

4.8 C

0 W/m

0.00 mm

18:45

4.9 C

1016.3 hpa

81 %

14.5 km/h aus 117

19.3 km/h aus SE

2.0 C

1.6 C

1.8 C

4.8 C

0 W/m

0.00 mm

18:50

4.9 C

1016.3 hpa

81 %

14.5 km/h aus 116

24.1 km/h aus SSE

2.0 C

1.6 C

1.8 C

4.8 C

0 W/m

0.00 mm

18:55

4.9 C

1016.3 hpa

81 %

12.9 km/h aus 117

20.9 km/h aus ESE

2.0 C

1.9 C

2.1 C

4.8 C

0 W/m

0.00 mm

19:00

4.9 C

1016.2 hpa

81 %

11.3 km/h aus 116

20.9 km/h aus SE

2.0 C

2.2 C

2.3 C

4.8 C

0 W/m

0.00 mm

19:05

4.9 C

1016.2 hpa

82 %

12.9 km/h aus 114

19.3 km/h aus S

2.1 C

1.9 C

2.1 C

4.8 C

0 W/m

0.00 mm

19:10

4.9 C

1016.2 hpa

82 %

11.3 km/h aus 116

19.3 km/h aus SE

2.1 C

2.2 C

2.3 C

4.8 C

0 W/m

0.00 mm

19:15

4.9 C

1016.1 hpa

82 %

9.7 km/h aus 117

16.1 km/h aus SE

2.1 C

2.5 C

2.7 C

4.8 C

0 W/m

0.00 mm

19:20

4.9 C

1016.1 hpa

82 %

11.3 km/h aus 117

17.7 km/h aus ESE

2.1 C

2.2 C

2.3 C

4.8 C

0 W/m

0.00 mm

19:25

4.9 C

1016.1 hpa

82 %

12.9 km/h aus 118

19.3 km/h aus ESE

2.1 C

1.9 C

2.1 C

4.8 C

0 W/m

0.00 mm

19:30

4.9 C

1015.7 hpa

83 %

11.3 km/h aus 116

20.9 km/h aus ESE

2.3 C

2.2 C

2.3 C

4.8 C

0 W/m

0.00 mm

19:35

4.9 C

1015.7 hpa

83 %

9.7 km/h aus 113

19.3 km/h aus SE

2.3 C

2.6 C

2.7 C

4.8 C

0 W/m

0.00 mm

19:40

5.0 C

1015.7 hpa

83 %

12.9 km/h aus 115

20.9 km/h aus ESE

2.4 C

2.0 C

2.1 C

4.9 C

0 W/m

0.00 mm

19:45

5.1 C

1015.6 hpa

83 %

14.5 km/h aus 117

22.5 km/h aus SE

2.4 C

1.8 C

1.9 C

4.9 C

0 W/m

0.00 mm

19:50

5.1 C

1015.6 hpa

83 %

20.9 km/h aus 116

33.8 km/h aus SE

2.4 C

0.8 C

0.9 C

4.9 C

0 W/m

0.00 mm

19:55

5.2 C

1015.6 hpa

83 %

20.9 km/h aus 116

32.2 km/h aus SE

2.5 C

1.0 C

1.1 C

5.1 C

0 W/m

0.00 mm

20:00

5.2 C

1015.5 hpa

83 %

17.7 km/h aus 117

27.4 km/h aus SSE

2.5 C

1.4 C

1.5 C

5.1 C

0 W/m

0.00 mm

20:05

5.2 C

1015.5 hpa

84 %

17.7 km/h aus 115

25.7 km/h aus ESE

2.7 C

1.4 C

1.5 C

5.1 C

0 W/m

0.00 mm

20:10

5.2 C

1015.5 hpa

84 %

20.9 km/h aus 115

30.6 km/h aus SE

2.7 C

1.0 C

1.1 C

5.1 C

0 W/m

0.00 mm

20:15

5.2 C

1015.2 hpa

85 %

22.5 km/h aus 116

29.0 km/h aus SE

2.9 C

0.8 C

0.9 C

5.1 C

0 W/m

0.25 mm

20:20

5.2 C

1015.2 hpa

85 %

19.3 km/h aus 117

25.7 km/h aus SE

2.9 C

1.2 C

1.3 C

5.1 C

0 W/m

0.00 mm

20:25

5.1 C

1015.2 hpa

86 %

16.1 km/h aus 117

22.5 km/h aus ESE

3.0 C

1.6 C

1.7 C

5.0 C

0 W/m

0.00 mm

20:30

5.1 C

1015.1 hpa

86 %

14.5 km/h aus 118

22.5 km/h aus SE

3.0 C

1.8 C

1.9 C

5.0 C

0 W/m

0.00 mm

20:35

5.1 C

1015.1 hpa

86 %

12.9 km/h aus 117

19.3 km/h aus SE

2.9 C

2.1 C

2.2 C

4.9 C

0 W/m

0.00 mm

20:40

5.1 C

1015.1 hpa

87 %

16.1 km/h aus 114

20.9 km/h aus SE

3.1 C

1.5 C

1.6 C

4.9 C

0 W/m

0.00 mm

20:45

5.1 C

1015.0 hpa

87 %

14.5 km/h aus 115

25.7 km/h aus SE

3.1 C

1.8 C

1.9 C

4.9 C

0 W/m

0.00 mm

20:50

5.1 C

1015.0 hpa

87 %

17.7 km/h aus 117

27.4 km/h aus ESE

3.1 C

1.3 C

1.4 C

4.9 C

0 W/m

0.00 mm

20:55

5.1 C

1015.0 hpa

87 %

16.1 km/h aus 117

22.5 km/h aus SE

3.1 C

1.5 C

1.6 C

4.9 C

0 W/m

0.00 mm

21:00

5.1 C

1014.7 hpa

87 %

16.1 km/h aus 116

22.5 km/h aus SE

3.1 C

1.6 C

1.7 C

5.0 C

0 W/m

0.00 mm

21:05

5.1 C

1014.7 hpa

87 %

17.7 km/h aus 117

25.7 km/h aus SE

3.1 C

1.3 C

1.4 C

4.9 C

0 W/m

0.00 mm

21:10

5.1 C

1014.7 hpa

87 %

17.7 km/h aus 115

29.0 km/h aus SE

3.1 C

1.3 C

1.4 C

5.0 C

0 W/m

0.00 mm

21:15

5.1 C

1014.6 hpa

87 %

17.7 km/h aus 113

29.0 km/h aus SE

3.1 C

1.3 C

1.4 C

5.0 C

0 W/m

0.00 mm

21:20

5.2 C

1014.6 hpa

87 %

19.3 km/h aus 117

25.7 km/h aus ESE

3.2 C

1.2 C

1.3 C

5.1 C

0 W/m

0.00 mm

21:25

5.2 C

1014.6 hpa

87 %

19.3 km/h aus 117

27.4 km/h aus ESE

3.2 C

1.2 C

1.3 C

5.1 C

0 W/m

0.00 mm

21:30

5.2 C

1014.4 hpa

87 %

17.7 km/h aus 117

24.1 km/h aus SE

3.2 C

1.4 C

1.5 C

5.1 C

0 W/m

0.00 mm

21:35

5.2 C

1014.4 hpa

87 %

19.3 km/h aus 118

24.1 km/h aus ESE

3.2 C

1.3 C

1.3 C

5.2 C

0 W/m

0.00 mm

21:40

5.2 C

1014.4 hpa

87 %

16.1 km/h aus 116

25.7 km/h aus SE

3.2 C

1.8 C

1.8 C

5.2 C

0 W/m

0.00 mm

21:45

5.2 C

1014.1 hpa

87 %

17.7 km/h aus 115

30.6 km/h aus SE

3.2 C

1.5 C

1.6 C

5.2 C

0 W/m

0.00 mm

21:50

5.2 C

1014.1 hpa

87 %

22.5 km/h aus 115

30.6 km/h aus ESE

3.2 C

0.9 C

0.9 C

5.2 C

0 W/m

0.00 mm

21:55

5.2 C

1014.1 hpa

87 %

22.5 km/h aus 117

33.8 km/h aus SE

3.2 C

0.9 C

0.9 C

5.2 C

0 W/m

0.00 mm

22:00

5.2 C

1014.0 hpa

87 %

20.9 km/h aus 117

29.0 km/h aus SE

3.2 C

1.1 C

1.2 C

5.2 C

0 W/m

0.00 mm

22:05

5.2 C

1014.0 hpa

87 %

22.5 km/h aus 116

32.2 km/h aus SE

3.2 C

0.9 C

0.9 C

5.2 C

0 W/m

0.00 mm

22:10

5.3 C

1014.0 hpa

87 %

19.3 km/h aus 117

27.4 km/h aus SE

3.3 C

1.4 C

1.4 C

5.2 C

0 W/m

0.00 mm

22:15

5.3 C

1014.0 hpa

87 %

19.3 km/h aus 115

27.4 km/h aus SE

3.3 C

1.4 C

1.4 C

5.2 C

0 W/m

0.00 mm

22:21

5.3 C

1014.0 hpa

87 %

16.1 km/h aus 113

25.7 km/h aus SE

3.3 C

1.8 C

1.9 C

5.2 C

0 W/m

0.00 mm

22:25

5.3 C

1014.0 hpa

87 %

16.1 km/h aus 89

22.5 km/h aus ESE

3.3 C

1.8 C

1.9 C

5.2 C

0 W/m

0.00 mm

22:30

5.3 C

1013.7 hpa

87 %

12.9 km/h aus 117

19.3 km/h aus ESE

3.3 C

2.4 C

2.4 C

5.2 C

0 W/m

0.00 mm

22:35

5.3 C

1013.7 hpa

87 %

14.5 km/h aus 117

22.5 km/h aus ESE

3.3 C

2.1 C

2.2 C

5.2 C

0 W/m

0.00 mm

22:40

5.2 C

1013.7 hpa

88 %

16.1 km/h aus 118

20.9 km/h aus ESE

3.4 C

1.8 C

1.8 C

5.2 C

0 W/m

0.25 mm

22:45

5.2 C

1013.5 hpa

88 %

17.7 km/h aus 116

24.1 km/h aus ESE

3.4 C

1.5 C

1.6 C

5.2 C

0 W/m

0.00 mm

22:50

5.2 C

1013.5 hpa

88 %

17.7 km/h aus 113

24.1 km/h aus SE

3.4 C

1.5 C

1.6 C

5.2 C

0 W/m

0.00 mm

22:55

5.2 C

1013.5 hpa

88 %

17.7 km/h aus 116

24.1 km/h aus SE

3.4 C

1.5 C

1.6 C

5.2 C

0 W/m

0.00 mm

23:00

5.2 C

1013.1 hpa

88 %

17.7 km/h aus 117

25.7 km/h aus SE

3.4 C

1.5 C

1.6 C

5.2 C

0 W/m

0.00 mm

23:05

5.2 C

1013.1 hpa

89 %

16.1 km/h aus 116

25.7 km/h aus SE

3.6 C

1.8 C

1.8 C

5.2 C

0 W/m

0.25 mm

23:10

5.2 C

1013.1 hpa

89 %

16.1 km/h aus 115

22.5 km/h aus SE

3.6 C

1.8 C

1.8 C

5.2 C

0 W/m

0.00 mm

23:15

5.3 C

1013.0 hpa

89 %

17.7 km/h aus 116

25.7 km/h aus SE

3.6 C

1.6 C

1.7 C

5.2 C

0 W/m

0.00 mm

23:20

5.3 C

1013.0 hpa

89 %

19.3 km/h aus 115

27.4 km/h aus SE

3.6 C

1.4 C

1.4 C

5.2 C

0 W/m

0.00 mm

23:25

5.3 C

1013.0 hpa

89 %

19.3 km/h aus 114

27.4 km/h aus SE

3.6 C

1.4 C

1.4 C

5.2 C

0 W/m

0.00 mm

23:30

5.3 C

1012.8 hpa

89 %

19.3 km/h aus 115

25.7 km/h aus SE

3.7 C

1.4 C

1.5 C

5.3 C

0 W/m

0.00 mm

23:35

5.3 C

1012.8 hpa

90 %

19.3 km/h aus 117

27.4 km/h aus SE

3.8 C

1.5 C

1.5 C

5.3 C

0 W/m

0.25 mm

23:40

5.3 C

1012.8 hpa

90 %

19.3 km/h aus 117

32.2 km/h aus ESE

3.8 C

1.5 C

1.5 C

5.3 C

0 W/m

0.00 mm

23:45

5.3 C

1012.6 hpa

90 %

19.3 km/h aus 118

25.7 km/h aus ESE

3.8 C

1.5 C

1.5 C

5.3 C

0 W/m

0.00 mm

23:50

5.3 C

1012.6 hpa

90 %

19.3 km/h aus 116

27.4 km/h aus SE

3.8 C

1.5 C

1.5 C

5.3 C

0 W/m

0.25 mm

23:55

5.3 C

1012.6 hpa

90 %

16.1 km/h aus 114

22.5 km/h aus SE

3.8 C

1.9 C

1.9 C

5.3 C

0 W/m

0.00 mm